Location: Bouchavesnes-Bergen
(49.9859°N, 2.9203°E)
Time: 17:19:10
(UTC+00:00)

NOAA 16 DEB - Pass Details

Date: 29 September 2021
Orbit: 798 x 841 km, 98.8° (Epoch: 21 October)

Event Time Altitude Azimuth Distance (km) Brightness Sun altitude
Exits shadow 23:52:53 10° 327° (NNW) 2,364 ? -42.7°
Drops below altitude 10° 23:53:00 10° 327° (NNW) 2,402 ? -42.7°
Sets 23:55:33 0° 338° (NNW) 3,320 ? -42.7°
